Location: Sternwarte Stuttgart
(48.7670°N, 9.1830°E)
Time: 00:32:13
(UTC+02:00)

ISS - All Passes

Search period start: 28 April 2017 00:00
Search period end: 08 May 2017 00:00
Orbit: 401 x 409 km, 51.6° (Epoch: 28 April)

Date Brightness Start Highest point End Pass type
(mag) Time Alt. Az. Time Alt. Az. Time Alt. Az.
28 Apr - 08:28:26 10° S 08:30:34 16° SE 08:32:43 10° E daylight
28 Apr - 10:03:22 10° WSW 10:06:38 77° SSE 10:09:54 10° ENE daylight
28 Apr - 11:40:05 10° W 11:43:17 49° N 11:46:28 10° ENE daylight
28 Apr - 13:16:46 10° WNW 13:20:02 69° NNE 13:23:17 10° E daylight
28 Apr - 14:53:26 10° W 14:56:22 31° SW 14:59:17 10° SSE daylight
29 Apr - 09:11:26 10° SW 09:14:37 50° SSE 09:17:47 10° ENE daylight
29 Apr - 10:47:54 10° W 10:51:08 55° N 10:54:20 10° ENE daylight
29 Apr - 12:24:39 10° WNW 12:27:53 56° N 12:31:07 10° E daylight
29 Apr - 14:01:13 10° WNW 14:04:23 49° SSW 14:07:33 10° SE daylight
30 Apr - 08:19:41 10° SSW 08:22:38 31° SE 08:25:34 10° E daylight
30 Apr - 09:55:42 10° W 09:58:58 69° NNW 10:02:14 10° ENE daylight
30 Apr - 11:32:31 10° WNW 11:35:43 49° N 11:38:54 10° E daylight
30 Apr - 13:09:05 10° WNW 13:12:21 76° SSW 13:15:36 10° ESE daylight
30 Apr - 14:46:18 10° W 14:48:25 16° SW 14:50:31 10° S daylight
01 May - 07:28:15 10° S 07:30:41 20° SE 07:33:09 10° E daylight
01 May - 09:03:34 10° WSW 09:06:50 88° SSE 09:10:07 10° ENE daylight
01 May - 10:40:20 10° WNW 10:43:31 48° N 10:46:42 10° ENE daylight
01 May - 12:16:58 10° WNW 12:20:15 77° NNE 12:23:30 10° ESE daylight
01 May - 13:53:44 10° W 13:56:30 26° SW 13:59:17 10° SSE daylight
02 May - 06:37:30 10° SSE 06:38:49 12° SE 06:40:08 10° ESE daylight
02 May - 08:11:32 10° SW 08:14:45 59° SSE 08:17:59 10° ENE daylight
02 May - 09:48:06 10° W 09:51:19 52° N 09:54:32 10° ENE daylight
02 May - 11:24:50 10° WNW 11:28:05 60° NNE 11:31:19 10° E daylight
02 May - 13:01:25 10° WNW 13:04:31 41° SSW 13:07:37 10° SE daylight
03 May - 07:19:39 10° SW 07:22:43 37° SSE 07:25:47 10° ENE daylight
03 May - 08:55:52 10° W 08:59:07 63° NNW 09:02:22 10° ENE daylight
03 May - 10:32:41 10° WNW 10:35:52 51° N 10:39:05 10° E daylight
03 May - 12:09:13 10° WNW 12:12:28 65° SSW 12:15:42 10° SE daylight
03 May - 13:46:46 10° WSW 13:48:27 13° SW 13:50:06 10° SSW daylight
04 May - 06:28:03 10° SSW 06:30:43 23° SE 06:33:24 10° E daylight
04 May - 08:03:40 10° WSW 08:06:57 82° NNW 08:10:13 10° ENE daylight
04 May - 09:40:27 10° WNW 09:43:39 48° N 09:46:50 10° ENE daylight
04 May - 11:17:03 10° WNW 11:20:20 86° NNE 11:23:36 10° ESE daylight
04 May - 12:53:57 10° W 12:56:32 22° SW 12:59:06 10° SSE daylight
05 May - 05:36:54 10° S 05:38:46 15° SE 05:40:40 10° ESE daylight
05 May - 07:11:32 10° WSW 07:14:47 69° SSE 07:18:04 10° ENE daylight
05 May - 08:48:11 10° W 08:51:24 50° N 08:54:36 10° ENE daylight
05 May - 10:24:54 10° WNW 10:28:09 65° NNE 10:31:25 10° E daylight
05 May - 12:01:31 10° W 12:04:32 35° SSW 12:07:32 10° SSE daylight
06 May - 06:19:34 10° SW 06:22:42 44° SSE 06:25:51 10° ENE daylight
06 May - 07:55:55 10° W 07:59:10 58° NNW 08:02:24 10° ENE daylight
06 May - 09:32:42 10° WNW 09:35:56 53° N 09:39:08 10° E daylight
06 May - 11:09:15 10° WNW 11:12:27 55° SSW 11:15:39 10° SE daylight
06 May - 12:47:24 10° WSW 12:48:21 11° SW 12:49:18 10° SSW daylight
07 May - 05:27:47 10° SSW 05:30:38 28° SE 05:33:30 10° E daylight
07 May - 07:03:39 10° WSW 07:06:56 74° NNW 07:10:12 10° ENE daylight
07 May - 08:40:28 10° WNW 08:43:39 49° N 08:46:51 10° E daylight
07 May - 10:17:02 10° WNW 10:20:19 83° SSW 10:23:34 10° ESE daylight
07 May - 11:54:05 10° W 11:56:26 18° SW 11:58:45 10° S daylight
